Location: Unspecified
(38.0989°N, 0.6729°W)
Time: 07:13:09
(UTC+02:00)

Mayak - Visible Passes

Search period start: 20 July 2018 00:00
Search period end: 30 July 2018 00:00
Orbit: 582 x 605 km, 97.6° (Epoch: 19 July)

Date Brightness Start Highest point End Pass type
(mag) Time Alt. Az. Time Alt. Az. Time Alt. Az.
20 Jul 1.2 00:28:01 10° NE 00:28:46 13° NE 00:28:46 13° NE visible
20 Jul 0.8 02:03:10 10° NNW 02:05:23 23° NW 02:05:23 23° NW visible
21 Jul 1.1 00:36:51 10° NE 00:37:58 16° NE 00:37:58 16° NE visible
21 Jul 1.0 02:12:34 10° NNW 02:14:35 20° NW 02:14:35 20° NW visible
22 Jul 0.9 00:45:46 10° NNE 00:47:10 19° NE 00:47:10 19° NE visible
22 Jul 1.2 02:22:04 10° NNW 02:23:47 16° NW 02:23:47 16° NW visible
23 Jul 0.8 00:54:46 10° NNE 00:56:22 21° NE 00:56:22 21° NE visible
23 Jul 1.4 02:31:41 10° NNW 02:32:59 14° NW 02:32:59 14° NW visible
24 Jul 0.7 01:03:48 10° NNE 01:05:34 24° NNE 01:05:34 24° NNE visible
24 Jul 1.6 02:41:37 10° NW 02:42:11 11° NW 02:42:11 11° NW visible
25 Jul 0.7 01:12:54 10° NNE 01:14:45 26° NNE 01:14:45 26° NNE visible
26 Jul 0.7 01:22:02 10° N 01:23:57 27° N 01:23:57 27° N visible
27 Jul 0.8 01:31:12 10° N 01:33:08 26° N 01:33:08 26° N visible
28 Jul 0.9 01:40:25 10° N 01:42:19 25° N 01:42:19 25° N visible
29 Jul 1.0 01:49:41 10° N 01:51:31 23° NNW 01:51:31 23° NNW visible
